Location: Newark
(48.3453°N, 0.5589°E)
Time: 03:22:47
(UTC+00:00)

Transit 2A - Visible Passes

Search period start: 12 December 2019 00:00
Search period end: 22 December 2019 00:00
Orbit: 602 x 957 km, 66.7° (Epoch: 11 December)

Date Brightness Start Highest point End Pass type
(mag) Time Alt. Az. Time Alt. Az. Time Alt. Az.
12 Dec 8.2 05:43:04 10° SSE 05:46:50 24° ESE 05:50:25 10° ENE visible
13 Dec 8.7 05:10:00 10° SSE 05:12:53 16° ESE 05:15:39 10° ENE visible
13 Dec 5.6 06:50:50 10° SW 06:55:32 72° NW 06:59:57 10° NNE visible
14 Dec 9.0 04:38:00 10° ESE 04:38:58 11° ESE 04:39:57 10° E visible
14 Dec 5.8 06:16:41 10° SSW 06:21:25 79° ESE 06:25:50 10° NE visible
15 Dec 6.4 05:42:43 10° SSW 05:47:20 54° ESE 05:51:40 10° NE visible
16 Dec 7.1 05:08:57 10° S 05:13:17 36° ESE 05:17:22 10° NE visible
16 Dec 6.2 06:52:13 10° WSW 06:56:25 34° NW 07:00:27 10° NNE visible
17 Dec 7.7 04:35:26 10° SSE 04:39:17 25° ESE 04:42:56 10° ENE visible
17 Dec 5.8 06:17:44 10° WSW 06:22:12 47° NW 06:26:27 10° NNE visible
18 Dec 8.2 04:04:14 16° SE 04:05:20 17° ESE 04:08:16 10° ENE visible
18 Dec 5.5 05:44:53 20° SW 05:48:01 67° NW 05:52:25 10° NNE visible
19 Dec 8.8 03:32:42 10° E 03:32:42 10° E 03:32:53 10° E visible
19 Dec 5.5 05:13:16 67° SSW 05:13:53 86° ESE 05:18:18 10° NE visible
19 Dec 7.0 06:54:22 10° W 06:57:34 19° NW 07:00:42 10° N visible
20 Dec 6.7 04:41:08 40° ENE 04:41:08 40° ENE 04:44:08 10° NE visible
20 Dec 6.7 06:21:41 20° WNW 06:23:13 24° NW 06:26:49 10° NNE visible
21 Dec 8.1 04:08:40 17° NE 04:08:40 17° NE 04:09:52 10° NE visible
21 Dec 6.4 05:49:12 31° NW 05:49:12 31° NW 05:52:52 10° NNE visible
